Lapse_Rate
1.4 0.9 0.8 0.7 0.6 0.4 0.3 0.2 0.0 0.0 0.1 -0.1 -0.2 -0.5 -0.7 -0.7 -0.7 -0.7 -0.7 -0.7 -0.6 -0.4 -0.6 -0.6 -0.2 0.4 3.9 6.3 5.8 5.3 3.4 3.8 4.7 5.1 4.8 5.6 7.1 7.3 6.5 6.9 7.0 6.5 6.8 7.2 7.5 7.1 7.4
1.3 1.1 1.0 0.7 0.4 0.3 0.3 0.1 -0.1 -0.2 -0.2 -0.3 -0.4 -0.7 -0.9 -0.9 -0.9 -0.9 -0.8 -0.7 -0.6 -0.4 -0.3 0.1 0.6 1.2 6.1 6.8 5.1 4.6 4.1 5.2 5.1 5.6 5.1 5.8 6.1 6.1 7.2 6.9 6.6 7.1 7.0 7.1 7.3 7.3 7.4
1.4 1.2 1.0 0.5 0.3 0.1 0.1 -0.0 -0.3 -0.3 -0.2 -0.3 -0.5 -0.8 -0.9 -1.0 -1.0 -0.9 -0.9 -0.6 -0.5 -0.2 0.2 0.8 1.4 3.9 5.7 6.1 5.3 5.1 5.3 5.4 4.8 5.5 5.9 4.9 5.4 7.4 7.6 6.7 7.5 7.2 6.5 6.6 6.9 7.1 6.8
1.4 1.1 0.9 0.6 0.4 0.2 0.1 -0.1 -0.3 -0.4 -0.3 -0.4 -0.7 -1.0 -1.1 -1.1 -1.1 -1.1 -1.1 -0.9 -0.3 0.3 0.9 1.4 2.0 5.1 6.5 6.0 5.6 6.4 6.6 6.8 6.1 5.9 5.5 5.0 5.7 6.3 7.5 7.6 7.1 6.5 6.5 6.5 6.5 6.9 7.0
1.6 1.3 0.9 0.4 0.5 0.3 0.2 -0.0 -0.2 -0.3 -0.3 -0.3 -0.6 -1.0 -1.1 -1.1 -1.3 -1.3 -1.1 -0.3 0.7 1.4 1.6 2.2 4.9 6.3 7.2 6.2 6.7 6.1 6.2 6.5 6.3 6.1 5.7 5.8 6.1 7.1 7.2 6.5 6.5 6.5 6.5 6.5 6.5 6.9 6.6
1.7 1.4 1.0 0.7 0.4 0.4 0.4 0.2 -0.0 -0.0 -0.2 -0.5 -0.7 -1.0 -1.1 -1.3 -1.3 -1.1 -1.0 0.5 1.8 2.9 3.6 4.0 5.0 6.8 6.8 6.7 6.2 6.0 6.5 6.0 6.4 6.3 6.9 7.1 7.4 6.5 6.5 6.5 6.5 6.5 6.5 6.5 6.5 6.5 6.5
1.7 1.6 1.0 0.6 0.5 0.4 0.4 0.2 0.0 -0.1 -0.2 -0.6 -0.9 -1.1 -1.2 -1.1 -1.1 -0.7 1.0 3.7 6.2 6.6 5.4 6.1 6.0 6.3 6.3 6.8 6.2 6.6 5.8 6.6 6.7 7.5 6.5 7.1 6.5 6.5 6.5 6.5 6.5 6.5 6.5 6.5 6.5 6.5 6.5
2.1 1.7 1.2 0.6 0.5 0.4 0.2 0.1 0.1 -0.1 -0.4 -0.8 -1.1 -1.2 -1.3 -1.2 -0.7 -0.9 1.4 2.8 1.0 2.5 7.0 6.0 6.0 6.5 6.3 6.1 7.2 6.8 6.4 7.4 7.1 6.5 6.7 6.5 6.5 6.5 6.5 6.5 6.5 6.5 6.5 6.5 6.5 6.5 6.5
2.5 2.1 1.5 1.0 0.7 0.4 0.2 -0.0 -0.2 -0.3 -0.5 -0.7 -1.0 -1.2 -1.2 -1.2 -0.3 1.5 1.4 0.6 0.0 1.3 7.0 6.9 6.3 6.7 6.5 6.7 6.8 6.7 6.3 6.5 6.7 6.5 6.5 6.5 6.5 6.7 6.5 6.5 6.5 6.5 6.5 6.5 6.5 6.5 6.5
2.9 2.6 2.0 1.4 0.8 0.5 0.1 -0.2 -0.3 -0.4 -0.6 -0.9 -1.1 -1.1 -1.1 -0.7 2.6 0.8 1.9 0.2 0.3 1.8 6.5 6.5 6.9 6.9 7.0 6.6 6.9 5.9 5.4 6.8 6.8 6.5 6.5 6.5 6.7 6.5 6.5 6.5 6.5 6.5 6.5 6.5 6.5 6.5 6.5
3.1 2.7 2.0 1.6 1.0 0.4 0.0 -0.1 -0.2 -0.3 -0.6 -0.9 -1.0 -1.0 -0.9 0.1 1.9 2.9 1.0 -0.3 0.7 3.6 6.5 6.5 6.9 7.2 6.4 7.1 7.1 6.7 5.0 6.7 6.5 6.5 6.5 6.5 6.5 6.5 6.5 6.5 6.5 6.5 6.5 6.5 6.5 6.5 6.5
3.5 2.9 2.4 1.9 1.3 0.7 0.2 -0.1 -0.2 -0.2 -0.4 -0.7 -0.8 -0.8 -0.5 1.3 1.8 0.0 -0.9 0.1 2.8 6.5 6.5 6.5 6.9 6.6 6.6 7.0 6.9 6.8 6.9 6.5 6.7 6.5 6.5 6.5 7.1 6.6 6.5 6.5 6.5 6.5 6.5 6.5 6.5 6.5 6.5
3.6 3.2 2.6 2.2 1.7 1.0 0.6 0.3 0.0 -0.0 -0.3 -0.7 -0.8 -0.6 0.4 -0.3 2.3 -1.4 -0.5 3.7 6.5 6.5 6.5 6.5 6.5 6.5 6.5 6.5 6.5 6.6 6.5 6.5 6.5 6.5 6.5 6.5 6.5 6.6 6.8 6.5 6.5 6.5 6.5 6.5 6.5 6.5 6.5
3.7 3.4 2.6 2.5 2.1 1.5 0.9 0.4 0.2 0.1 -0.2 -0.6 -0.9 -0.6 -1.0 -0.9 -1.3 -1.0 1.7 6.5 6.5 6.5 6.5 6.5 6.5 6.5 6.5 6.5 6.5 6.5 6.5 6.5 6.5 6.5 6.5 6.5 6.5 6.5 6.6 6.5 6.5 6.5 6.5 6.5 6.5 6.5 6.5
3.8 3.5 3.2 2.7 2.6 2.0 1.3 0.8 0.4 0.2 -0.0 -0.2 -0.3 0.3 1.0 -0.1 -1.2 0.2 6.0 6.5 6.5 6.5 6.5 6.5 6.5 6.5 6.5 6.5 6.5 6.5 6.5 6.5 6.5 6.5 6.5 6.5 6.5 6.5 6.5 6.6 6.5 6.5 6.5 6.5 6.5 6.5 6.5
3.6 3.5 3.3 3.3 3.1 2.6 1.9 1.2 0.8 0.4 0.2 -0.3 2.3 2.5 2.3 -0.7 -0.6 3.6 6.7 6.5 6.5 6.7 6.7 6.5 6.5 6.5 6.5 6.5 6.5 6.5 6.5 6.5 6.5 6.7 6.9 6.5 6.5 6.5 6.5 6.8 6.7 6.5 6.5 6.5 6.5 6.5 6.5
3.9 3.6 3.3 3.2 3.1 2.7 2.4 1.6 1.0 0.8 0.3 -0.1 2.3 5.2 2.7 -0.5 1.4 6.5 6.5 6.5 6.5 6.8 6.8 6.5 6.5 6.5 6.5 6.5 6.5 6.5 6.5 6.5 6.6 6.5 6.9 6.5 6.5 6.5 6.5 6.5 6.5 6.5 6.5 6.5 6.5 6.5 6.5
4.1 3.9 3.7 3.3 3.0 2.5 2.2 2.0 1.6 1.2 0.7 1.0 3.0 6.5 2.2 1.2 6.8 7.0 6.5 6.5 6.3 6.8 6.9 6.7 6.7 6.5 6.5 6.5 6.5 6.5 6.5 6.5 7.1 6.9 6.5 6.5 6.5 6.5 6.5 6.5 6.6 6.5 6.5 6.5 6.5 6.5 6.5
3.6 4.2 4.0 3.2 2.6 2.2 1.7 1.5 1.5 1.7 1.5 1.6 5.5 5.1 3.2 3.7 6.5 6.5 6.7 6.5 6.7 6.6 6.6 6.5 6.5 6.6 6.6 6.5 6.5 6.5 6.5 7.0 7.2 6.7 6.5 6.5 6.5 6.5 6.5 6.5 6.5 6.5 6.5 6.5 6.5 6.5 6.5
3.8 3.7 4.1 3.6 2.3 1.8 1.5 0.7 0.9 2.0 1.8 2.5 4.6 6.5 6.2 5.3 4.6 6.6 6.5 6.5 6.5 6.5 6.8 6.9 6.6 6.8 6.5 6.5 6.5 6.5 6.5 6.7 7.1 7.0 7.1 7.0 6.5 6.5 6.5 6.5 6.5 6.5 6.5 6.5 6.5 6.5 6.5
4.7 4.4 3.6 4.0 3.0 1.7 1.9 1.4 2.0 2.5 2.8 3.7 4.8 6.5 5.4 6.5 6.7 6.7 6.6 6.5 6.5 6.5 6.9 7.0 6.5 6.5 6.5 6.5 6.5 6.5 6.5 6.5 6.9 7.1 6.9 6.5 6.5 6.5 6.5 6.5 6.5 6.5 6.5 6.5 6.5 6.5 6.5
4.1 4.4 4.7 4.6 3.4 2.4 0.9 1.4 1.5 2.6 3.6 3.9 4.8 6.1 5.1 7.0 6.0 6.5 6.5 6.5 6.5 6.5 6.5 6.5 6.5 6.5 6.5 6.5 6.5 6.5 6.5 6.5 6.5 6.7 6.5 6.6 6.5 6.5 6.5 6.5 6.5 6.5 6.5 6.5 6.5 6.5 6.5
4.5 4.1 4.5 4.3 3.8 2.6 1.9 1.5 1.3 2.1 3.1 3.3 2.2 2.7 5.6 6.7 6.6 6.5 6.5 6.5 6.5 6.7 6.8 7.0 6.7 6.5 6.5 6.6 7.1 7.0 7.3 7.2 6.9 6.5 6.5 6.5 6.5 6.5 6.5 6.5 6.5 6.5 6.5 6.5 6.5 6.5 6.5
5.2 4.4 3.7 4.1 4.3 3.1 1.9 1.4 1.4 2.2 2.3 3.3 2.3 3.4 4.7 6.5 6.5 6.5 6.5 6.5 6.5 6.7 6.5 7.0 7.1 6.6 6.6 6.1 6.5 7.5 7.5 7.2 7.1 6.9 7.0 6.5 6.5 6.5 6.5 6.5 6.5 6.5 6.5 6.5 6.5 6.5 6.5
5.2 4.8 4.4 3.8 4.1 3.2 2.5 1.9 1.8 2.3 2.1 2.4 2.0 4.0 4.9 6.5 6.7 6.7 6.7 6.7 6.9 6.8 6.8 6.9 6.6 6.0 6.8 7.3 6.5 6.5 6.5 6.5 6.5 6.6 6.5 6.7 6.5 6.5 6.5 6.5 6.5 6.5 6.5 6.5 6.5 6.5 6.6
5.7 5.0 4.5 4.2 4.1 3.8 2.9 2.6 2.6 2.6 1.8 1.0 1.7 1.9 3.8 5.5 6.5 6.0 6.8 7.0 6.5 6.5 6.7 7.1 6.6 6.4 6.7 6.8 6.5 6.5 6.5 6.5 6.5 6.5 6.8 6.5 6.5 6.5 6.5 6.5 6.5 6.5 6.5 7.2 6.8 6.5 7.0
5.3 5.1 4.7 4.4 4.6 4.5 3.6 3.1 3.5 3.1 2.4 1.2 1.0 1.5 3.2 2.4 4.1 4.5 6.8 6.7 6.7 7.0 6.5 7.1 7.2 7.1 6.7 6.5 6.5 6.5 6.5 6.5 6.5 6.5 6.5 6.5 6.5 6.5 6.5 6.5 6.5 6.5 7.0 7.4 6.5 6.5 7.3
5.0 4.3 4.0 4.3 4.6 3.6 4.2 4.0 3.7 3.4 2.1 1.8 1.7 1.8 2.8 1.7 5.3 4.6 4.1 6.2 6.3 6.9 6.5 7.1 6.8 6.9 6.7 6.5 6.5 6.5 6.5 6.5 6.5 6.5 6.5 6.5 6.5 6.5 6.5 6.5 6.5 7.2 6.8 6.5 6.8 7.5 7.6
4.8 4.8 4.1 4.0 4.1 5.2 4.7 3.8 3.8 3.5 2.4 2.5 1.6 2.2 2.6 2.5 5.7 5.3 4.5 4.0 3.5 4.3 5.5 5.4 7.0 7.0 7.1 6.5 6.5 6.5 6.5 6.5 6.5 6.5 6.5 6.5 6.5 6.5 6.5 6.5 7.0 7.4 7.2 6.7 7.1 7.6 7.7
Wind_Speed
3 5 6 7 8 10 11 12 12 13 13 15 15 15 15 15 14 13 12 11 10 9 7 7 8 8 2 4 2 6 14 10 4 2 5 2 2 2 4 3 2 5 4 5 7 14 13
3 4 5 6 8 10 11 11 12 13 14 15 15 15 15 15 15 14 13 12 9 8 7 7 8 5 1 2 4 8 10 5 7 3 4 3 2 2 6 2 0 3 5 5 5 10 9
2 3 5 6 8 9 11 11 12 13 14 14 15 15 15 15 15 14 14 12 8 6 6 6 7 2 5 4 3 7 5 3 4 2 3 3 1 1 4 5 3 4 5 4 5 10 5
1 2 4 6 8 9 10 11 12 12 13 14 15 15 16 16 15 14 15 11 6 4 5 6 5 1 4 1 3 4 6 3 4 4 4 3 3 6 3 5 3 2 2 5 4 10 5
2 1 3 5 7 8 10 11 11 12 12 13 14 15 15 15 16 16 14 7 3 3 3 4 1 1 4 2 1 4 6 4 3 3 5 3 3 3 3 3 3 2 4 4 4 4 5
4 3 2 4 6 8 9 11 11 12 12 13 14 14 15 15 16 16 10 2 4 1 1 0 2 2 1 2 3 3 3 3 3 1 1 3 2 2 3 5 4 4 4 3 5 6 4
6 4 3 3 6 7 8 9 10 11 13 13 14 15 15 15 14 11 3 1 1 2 8 5 2 2 2 2 2 5 4 1 0 2 1 3 3 3 1 1 1 0 2 5 1 2 3
10 7 4 2 4 6 7 8 10 11 12 14 16 16 16 17 10 5 3 5 3 2 5 4 2 2 1 3 1 8 4 0 1 2 0 2 1 2 4 3 2 2 3 6 2 1 3
12 10 8 5 3 3 6 8 10 11 13 14 15 17 17 15 2 6 6 5 1 3 2 3 2 2 2 2 2 5 4 1 3 3 2 1 3 3 1 3 3 5 8 5 4 1 2
15 13 10 8 5 2 3 7 9 11 12 14 15 16 19 15 2 1 3 1 1 2 2 3 2 2 1 1 2 2 4 2 1 2 3 2 2 5 5 5 6 8 1 2 3 4 5
16 15 12 10 7 4 3 4 6 9 11 13 16 15 13 11 5 2 2 1 1 2 2 1 1 1 0 1 1 2 2 2 2 4 4 2 5 4 5 2 5 2 2 1 2 6 5
19 16 14 11 9 6 4 4 5 6 8 11 13 13 7 3 2 2 2 1 2 1 3 3 1 1 1 2 1 4 3 4 2 1 1 2 2 1 3 3 1 4 2 1 2 3 6
21 19 16 13 11 7 5 5 6 8 9 10 12 7 4 2 2 4 2 2 1 2 2 3 2 1 0 0 1 4 2 1 2 2 2 1 2 1 0 3 2 3 3 4 4 4 5
22 22 19 16 13 10 6 5 5 7 9 10 6 4 6 4 4 3 1 2 3 0 3 1 2 1 2 0 2 0 1 2 2 1 1 3 3 5 1 1 2 5 3 4 7 9 13
22 21 19 17 14 11 7 5 5 5 7 8 1 2 2 6 6 1 1 1 2 3 3 4 2 2 2 2 2 1 2 1 1 1 4 2 2 2 2 2 2 4 6 3 6 9 7
24 22 20 18 15 14 10 7 5 4 5 6 1 1 1 8 5 2 1 3 1 1 2 1 3 1 3 3 3 2 2 2 3 1 1 1 4 1 2 1 3 3 2 2 2 6 8
24 25 24 21 18 15 12 9 6 4 3 1 1 1 1 5 2 0 2 3 2 2 2 3 3 3 4 3 4 4 2 3 1 4 0 1 2 3 2 4 2 3 3 2 2 4 5
17 24 24 23 21 17 14 10 7 4 1 2 2 2 2 3 1 1 2 1 1 2 0 2 2 3 4 5 4 4 4 1 1 3 4 2 1 4 3 2 1 1 2 4 6 7 3
11 12 23 24 23 20 17 13 8 6 6 3 2 1 1 2 3 3 1 1 0 2 2 2 3 2 1 3 3 3 1 2 1 3 3 5 3 4 4 3 2 4 3 2 2 0 12
7 13 16 25 26 24 21 17 13 8 7 0 2 2 1 2 1 3 4 2 3 1 1 1 1 2 2 3 1 1 3 1 1 2 3 4 4 9 13 11 1 4 6 8 8 6 14
6 8 12 24 27 28 23 19 14 9 8 2 1 2 1 3 4 4 3 4 4 4 1 3 2 6 5 4 3 4 2 3 1 0 1 2 5 4 8 7 6 9 12 12 15 16 12
5 8 8 13 28 27 26 22 17 10 9 1 3 3 1 2 2 5 4 6 8 5 7 4 5 3 7 5 3 4 6 4 2 3 4 1 3 1 5 4 4 10 13 14 14 15 16
5 8 8 12 27 29 27 24 20 15 11 2 1 0 2 4 4 3 4 4 6 8 1 1 4 5 6 3 3 5 4 3 2 3 7 2 3 2 5 2 7 12 6 9 3 1 3
6 10 10 11 18 28 27 25 23 21 13 1 2 2 3 3 4 4 4 3 4 3 2 2 2 4 4 9 10 7 8 7 4 5 2 4 4 2 3 3 5 2 2 3 1 2 0
10 11 11 11 13 28 27 26 24 21 15 2 1 1 3 3 3 4 7 4 6 4 3 3 1 2 9 4 2 2 2 3 3 4 1 1 3 3 3 3 6 3 1 1 1 1 1
11 14 12 10 11 26 26 23 21 20 13 3 1 2 2 4 3 3 4 5 4 4 3 2 3 2 2 3 2 4 4 2 3 3 2 2 1 5 2 4 5 4 4 3 2 6 5
13 17 14 13 10 24 24 21 20 18 17 5 1 3 3 4 1 1 3 4 5 3 3 4 5 3 1 3 4 5 3 1 3 5 5 3 3 10 8 5 4 4 5 4 1 2 5
19 21 20 15 18 26 23 21 21 19 18 7 1 7 2 3 2 1 2 3 3 3 4 6 5 2 3 5 4 3 4 3 2 2 3 6 6 4 4 5 7 8 5 4 2 3 2
22 14 6 13 27 25 23 19 20 21 16 7 3 7 13 6 3 2 6 4 2 2 2 2 2 3 3 3 2 2 3 3 3 3 2 4 3 2 5 0 3 5 0 2 2 1 2
Wind_Direction
64 50 38 31 22 18 17 15 10 6 2 2 0 357 354 352 346 342 342 337 343 350 347 349 349 344 224 75 74 326 331 338 1 18 42 49 64 111 122 107 104 99 120 87 99 87 94
50 32 27 27 25 19 15 13 11 8 3 0 357 353 353 349 341 339 337 334 344 346 349 353 349 327 217 123 327 320 327 340 27 48 55 36 110 131 105 95 78 104 123 124 127 139 133
36 23 16 19 21 19 16 10 11 8 2 358 355 352 348 347 341 338 335 335 337 339 344 345 353 346 61 82 329 334 353 8 3 21 88 46 55 224 138 132 113 122 141 137 135 160 136
10 6 18 14 18 15 14 11 10 6 2 357 354 351 348 343 339 337 335 336 332 337 337 334 339 331 76 325 326 6 356 19 29 31 64 39 53 88 16 105 82 144 219 189 135 165 151
241 313 3 18 13 12 10 9 7 4 0 355 352 351 345 341 340 341 342 349 7 333 321 333 270 319 99 340 22 357 7 6 0 35 48 53 52 63 129 174 172 186 221 205 156 213 152
245 285 336 0 7 9 8 6 2 357 357 354 351 346 342 342 343 343 343 354 7 48 4 110 101 147 55 29 354 343 8 15 39 61 86 42 58 147 142 207 252 216 222 201 209 162 202
225 261 296 343 354 358 4 3 358 355 352 353 348 343 341 341 341 346 14 175 186 118 41 46 29 47 6 344 306 26 3 323 32 74 61 39 233 223 86 297 0 34 253 259 144 97 211
223 226 234 284 329 347 352 356 353 354 354 350 345 341 342 342 344 19 61 68 90 64 87 34 40 56 5 323 117 22 346 142 65 100 292 187 229 65 103 112 149 183 244 247 243 242 253
219 226 224 223 248 319 345 352 353 352 352 348 345 340 337 340 316 37 71 99 155 191 79 48 41 29 339 332 61 354 349 134 96 120 84 237 113 144 168 172 218 228 242 231 269 188 149
216 222 224 229 238 261 344 352 352 351 350 345 345 343 341 337 131 88 62 79 202 238 157 39 28 58 321 2 70 340 359 336 102 150 163 233 145 197 198 223 216 264 289 219 207 231 259
219 223 222 223 232 253 304 341 350 349 349 347 344 343 348 30 125 76 81 328 244 238 357 82 49 336 27 33 41 75 11 296 192 168 194 106 182 189 219 256 195 16 62 121 233 256 290
219 219 220 225 228 238 273 310 331 342 348 348 346 345 346 15 56 47 353 291 216 207 258 167 222 226 195 45 62 327 19 43 26 140 314 36 35 337 1 59 28 130 212 198 187 243 249
220 214 214 220 225 225 246 291 322 336 345 351 348 0 47 23 72 341 321 219 247 204 62 172 172 56 55 10 60 17 34 15 294 276 210 164 166 108 307 202 155 204 264 284 225 204 264
215 212 207 209 219 222 234 270 312 333 342 345 357 53 44 51 347 338 226 234 222 50 195 119 161 178 226 146 149 18 182 220 125 271 236 253 229 181 34 289 320 191 240 252 290 293 298
216 211 206 205 211 215 221 248 289 319 339 345 26 57 74 2 355 293 221 258 248 190 110 160 161 215 178 178 249 263 205 200 131 218 228 219 228 105 45 344 313 148 216 21 289 269 276
205 209 207 206 211 213 207 219 259 298 341 344 109 98 40 330 340 258 162 240 221 64 120 174 234 274 233 178 211 212 196 148 160 208 278 145 266 54 97 224 83 278 55 217 208 289 280
210 207 207 202 203 206 210 210 229 276 348 17 57 164 41 331 251 62 226 219 171 152 195 205 206 218 223 215 217 208 196 113 154 142 118 166 267 127 214 201 209 162 204 207 294 234 265
226 210 208 198 195 198 202 211 216 233 146 96 161 234 2 308 151 59 195 185 64 167 142 233 253 240 223 181 209 234 237 73 138 168 173 145 207 250 260 113 335 263 258 239 233 239 247
352 241 210 199 188 194 195 200 219 219 209 144 182 108 24 289 209 190 138 191 304 180 201 189 232 275 9 223 243 220 175 44 155 184 175 168 193 287 200 171 178 232 188 171 119 182 246
321 357 227 199 187 189 194 192 206 217 206 111 153 192 65 71 49 140 157 193 189 83 123 58 113 125 156 218 203 278 198 150 311 169 144 187 212 242 266 307 111 209 210 210 212 241 267
347 324 347 208 192 186 190 190 197 194 203 247 152 207 25 176 204 157 174 151 167 189 162 170 200 219 192 208 195 223 178 175 220 188 91 255 251 246 265 271 250 253 250 231 225 243 255
349 330 314 239 192 192 184 187 184 189 178 283 168 168 91 103 116 138 181 206 199 178 170 191 212 160 193 214 216 188 174 206 211 175 191 184 250 251 262 265 265 265 254 247 254 259 262
330 337 311 333 202 193 188 180 180 176 168 173 187 273 136 143 145 166 211 198 203 150 217 1 171 157 197 206 88 83 75 61 111 189 181 201 226 245 277 348 318 273 287 229 201 70 277
315 338 324 311 222 193 187 178 176 186 172 132 205 155 117 193 177 201 165 151 164 204 139 146 175 173 120 123 112 106 79 82 92 65 68 177 192 231 290 293 250 77 69 56 16 262 81
310 312 313 299 242 190 187 182 177 183 176 141 259 142 144 156 145 150 151 127 107 80 89 138 57 53 144 126 147 159 166 169 90 57 60 343 197 238 267 245 324 178 174 119 22 91 129
297 312 306 292 259 185 182 180 182 180 151 105 62 330 106 132 177 51 148 172 151 149 137 84 67 114 156 193 171 229 237 142 191 143 60 101 53 223 171 262 277 76 137 116 98 270 174
297 298 282 277 258 178 174 180 186 171 160 116 82 66 68 109 131 187 153 168 146 139 128 143 157 167 314 199 187 204 217 88 207 186 168 167 207 220 227 252 271 135 139 139 207 35 166
303 293 278 245 191 165 172 171 159 161 139 103 115 38 86 92 72 307 49 152 131 169 173 140 124 198 174 210 201 178 204 181 188 125 186 189 186 196 193 219 251 157 137 220 79 163 229
308 299 278 173 153 156 152 154 153 149 129 115 95 87 62 73 80 83 87 70 10 5 133 156 78 157 163 143 201 145 160 166 162 221 174 218 245 212 225 206 109 170 71 125 154 200 259